Back to catalog

FSKL5695-11

AliveAmateur RadioSSO
NORAD 64888·PAYLOAD·🇷🇺 Russia
This satellite name has not been confirmed by official sources yet.

Launched Jul 25, 2025 from Vostochny Cosmodrome

Loading…

Next Passes (next 24 hours)

TLE

FreshSource: Space-Track

Epoch: Sep 14, 2026, 13:53 UTC

1 64888U 25155N   26257.57873759  .00029632  00000-0  57957-3 0  9993
2 64888  97.4558 230.7933 0005945 162.6636 197.4818 15.47371418 94736

Track FSKL5695-11 in real time with AllMySat

Download on the App Store